Weather History for KTRL - November, 2013

Change the Weather History Date:

Friday, November 22, 2013

  Actual Average (KDFW) Record (KDFW)
Temperature  
Mean Temperature 42 °F 54 °F  
Max Temperature 48 °F 64 °F 89 °F (1955)
Min Temperature 36 °F 44 °F 23 °F (1898)
Degree Days  
Heating Degree Days 23 12  
Month to date heating degree days 176  
Since 1 July heating degree days 248  
Cooling Degree Days 0 0  
Month to date cooling degree days 27  
Year to date cooling degree days 2750  
Moisture  
Dew Point 37 °F    
Average Humidity 95    
Maximum Humidity 100    
Minimum Humidity 92    
Precipitation  
Precipitation 0.18 in 0.07 in 1.89 in (1913)
Month to date precipitation 2.11  
Year to date precipitation 32.99  
Snow  
Snow 0.00 in 0.00 in 5.00 in (1937)
Month to date snowfall 0.0  
Since 1 July snowfall 0.0  
Since 1 September snowfall 0.0  
Snow Depth -    
Sea Level Pressure  
Sea Level Pressure 30.35 in    
Wind  
Wind Speed 16 mph (North)    
Max Wind Speed 22 mph    
Max Gust Speed 30 mph    
Visibility 7 miles    
Events Rain , Snow    
T = Trace of Precipitation, MM = Missing Value Source: NWS Daily Summary

Daily Weather History Graph

Daily Weather History Graph

Search for Another Location

Airport or City:

Trip Planner

Search our weather history database for the weather conditions in past years. The results will help you decide how hot, cold, wet, or windy it might be!

Date:

Astronomy

Nov. 22, 2013 Rise Set
Actual Time 7:01 AM CST 5:20 PM CST
Civil Twilight 6:35 AM CST 5:47 PM CST
Nautical Twilight 6:05 AM CST 6:17 PM CST
Astronomical Twilight 5:35 AM CST 6:46 PM CST
Moon 9:49 PM CST (11/22) 10:49 AM CST (11/22)
Length of Visible Light 11h 12m
Length of Day
10h 19m
Waning Gibbous, 78% of the Moon is Illuminated
Nov 22
Waning Gibbous
Nov 25
Last Quarter
Dec 2
New
Dec 9
First Quarter
Dec 17
Full

Hourly Weather History & Observations

Time (CST) Temp. Windchill Dew Point Humidity Pressure Visibility Wind Dir Wind Speed Gust Speed Precip Events Conditions
12:02 AM 48.9 °F - 48.0 °F 97% 30.15 in 10.0 mi NNW 21.9 mph 27.6 mph 0.00 in Rain Light Rain
12:53 AM 46.0 °F 40.2 °F 44.1 °F 93% 30.20 in 10.0 mi North 12.7 mph 26.5 mph 0.00 in   Overcast
1:53 AM 43.0 °F 34.5 °F 42.1 °F 97% 30.22 in 10.0 mi North 19.6 mph 29.9 mph N/A   Overcast
2:53 AM 42.1 °F 33.6 °F 39.9 °F 92% 30.24 in 10.0 mi North 18.4 mph 27.6 mph 0.01 in   Overcast
3:53 AM 41.0 °F 32.2 °F 39.0 °F 93% 30.25 in 10.0 mi North 18.4 mph 27.6 mph N/A   Overcast
4:53 AM 39.9 °F 32.1 °F 39.0 °F 97% 30.30 in 6.0 mi North 13.8 mph 21.9 mph 0.00 in Rain Light Rain
5:45 AM 39.0 °F 29.9 °F 37.0 °F 93% 30.30 in 7.0 mi North 17.3 mph 26.5 mph 0.00 in Rain Light Rain
5:53 AM 39.0 °F 31.0 °F 37.0 °F 93% 30.30 in 10.0 mi North 13.8 mph 24.2 mph 0.00 in   Overcast
6:38 AM 39.0 °F 30.6 °F 37.9 °F 96% 30.33 in 6.0 mi North 15.0 mph 23.0 mph 0.00 in   Overcast
6:53 AM 39.0 °F 31.8 °F 37.0 °F 93% 30.33 in 5.0 mi NNW 11.5 mph 25.3 mph 0.00 in   Overcast
7:53 AM 37.0 °F 27.4 °F 36.0 °F 96% 30.35 in 7.0 mi North 17.3 mph 25.3 mph 0.02 in Rain Light Rain
8:53 AM 37.0 °F 28.5 °F 36.0 °F 96% 30.39 in 10.0 mi North 13.8 mph 21.9 mph 0.00 in   Overcast
9:53 AM 37.0 °F 27.4 °F 36.0 °F 96% 30.38 in 5.0 mi North 17.3 mph 24.2 mph 0.01 in   Overcast
10:53 AM 37.0 °F 28.5 °F 35.1 °F 93% 30.40 in 7.0 mi North 13.8 mph 24.2 mph 0.02 in Rain Light Rain
11:53 AM 37.0 °F 28.5 °F 36.0 °F 96% 30.38 in 9.0 mi North 13.8 mph 21.9 mph 0.00 in   Overcast
12:53 PM 37.0 °F 28.1 °F 35.1 °F 93% 30.38 in 7.0 mi North 15.0 mph 23.0 mph 0.00 in Rain Light Rain
1:12 PM 37.0 °F 28.5 °F 36.0 °F 96% 30.37 in 2.0 mi NNW 13.8 mph 21.9 mph 0.03 in Rain Rain
1:31 PM 37.0 °F 28.9 °F 36.0 °F 96% 30.37 in 4.0 mi North 12.7 mph 19.6 mph 0.04 in Rain Light Rain
1:53 PM 37.0 °F 28.9 °F 36.0 °F 96% 30.37 in 6.0 mi NNW 12.7 mph - 0.05 in Rain Light Rain
2:53 PM 37.0 °F 28.9 °F 36.0 °F 96% 30.36 in 7.0 mi North 12.7 mph 23.0 mph 0.03 in Rain Light Rain
3:41 PM 37.0 °F 28.5 °F 36.0 °F 96% 30.37 in 10.0 mi North 13.8 mph - 0.01 in   Overcast
3:53 PM 37.0 °F 28.1 °F 35.1 °F 93% 30.37 in 10.0 mi North 15.0 mph 25.3 mph 0.01 in   Overcast
4:53 PM 37.0 °F 26.7 °F 35.1 °F 93% 30.37 in 10.0 mi North 19.6 mph 25.3 mph N/A   Overcast
5:33 PM 37.0 °F 28.9 °F 36.0 °F 96% 30.39 in 4.0 mi North 12.7 mph 20.7 mph 0.00 in Rain Light Rain
5:53 PM 37.0 °F 28.9 °F 36.0 °F 96% 30.39 in 4.0 mi North 12.7 mph 18.4 mph 0.00 in Rain Light Rain
6:34 PM 36.0 °F 27.1 °F 36.0 °F 100% 30.39 in 2.5 mi North 13.8 mph - 0.00 in Snow Light Snow
6:53 PM 36.0 °F 28.0 °F 36.0 °F 100% 30.41 in 2.5 mi NNW 11.5 mph - 0.00 in Rain Light Rain
7:01 PM 36.0 °F 27.1 °F 35.1 °F 97% 30.40 in 3.0 mi North 13.8 mph 21.9 mph 0.00 in Rain Light Rain
7:53 PM 37.0 °F 31.0 °F 36.0 °F 96% 30.41 in 7.0 mi North 8.1 mph 19.6 mph 0.01 in Rain Light Rain
8:53 PM 37.0 °F 28.9 °F 36.0 °F 96% 30.42 in 6.0 mi North 12.7 mph - 0.01 in Rain Light Rain
9:26 PM 37.0 °F 28.5 °F 36.0 °F 96% 30.41 in 2.5 mi North 13.8 mph 21.9 mph 0.00 in Snow Light Snow
9:43 PM 37.0 °F 28.9 °F 36.0 °F 96% 30.42 in 3.0 mi North 12.7 mph 19.6 mph 0.01 in Snow Light Snow
9:53 PM 37.0 °F 29.8 °F 36.0 °F 96% 30.43 in 4.0 mi North 10.4 mph 20.7 mph 0.01 in Rain Light Rain
10:53 PM 37.0 °F 29.3 °F 36.0 °F 96% 30.44 in 8.0 mi North 11.5 mph 20.7 mph 0.00 in Rain Light Rain
11:53 PM 37.0 °F 29.3 °F 36.0 °F 96% 30.43 in 7.0 mi North 11.5 mph - 0.00 in Rain Light Rain